FW7988 Weather Reports


Display with metric or nautical units.
time (UTC)temp
F
wind
direction
speed
MPH
gust
MPH
rain 1hr
in
rain 24hr
in
rain mn
in
humidity
%
barometer
mb
20260901081740 77 187 4.0 7.0 0.00 0.00 0.00 81
20260901081240 77 195 3.0 6.0 0.00 0.00 0.00 81
20260901080736 77 179 4.0 8.0 0.00 0.00 0.00 81
20260901080234 78 185 5.0 7.0 0.00 0.00 0.00 81
20260901075734 78 169 3.0 7.0 0.00 0.00 0.00 81
20260901075229 78 166 3.0 6.0 0.00 0.00 0.00 81
20260901074724 77 180 4.0 6.0 0.00 0.00 0.00 81
20260901074219 77 178 3.0 7.0 0.00 0.00 0.00 82
20260901073716 77 189 4.0 7.0 0.00 0.00 0.00 82
20260901073211 78 186 4.0 6.0 0.00 0.00 0.00 81
20260901072706 78 179 3.0 5.0 0.00 0.00 0.00 81
20260901072201 78 158 2.0 5.0 0.00 0.00 0.00 81
20260901071700 78 171 3.0 5.0 0.00 0.00 0.00 80
20260901071155 78 166 1.0 5.0 0.00 0.00 0.00 80
20260901070649 79 165 1.0 6.0 0.00 0.00 0.00 79
20260901070144 79 185 3.0 6.0 0.00 0.00 0.00 79
20260901065643 79 140 3.0 5.0 0.00 0.00 0.00 78
20260901065138 79 180 4.0 6.0 0.00 0.00 0.00 78
20260901064630 79 170 5.0 7.0 0.00 0.00 0.00 78
20260901064125 79 179 4.0 5.0 0.00 0.00 0.00 77
20260901063622 80 183 4.0 6.0 0.00 0.00 0.00 77
20260901063118 80 157 1.0 7.0 0.00 0.00 0.00 76
20260901062614 80 181 3.0 7.0 0.00 0.00 0.00 76
20260901062110 80 171 7.0 9.0 0.00 0.00 0.00 75
20260901061606 80 176 3.0 7.0 0.00 0.00 0.00 75
20260901061106 80 178 4.0 9.0 0.00 0.00 0.00 74
20260901060606 80 172 5.0 7.0 0.00 0.00 0.00 74
20260901055556 81 172 4.0 7.0 0.00 0.00 0.00 73
20260901055053 81 162 5.0 7.0 0.00 0.00 0.00 72
20260901054550 81 130 2.0 6.0 0.00 0.00 0.00 72
20260901054045 81 188 3.0 6.0 0.00 0.00 0.00 71
20260901053541 81 180 3.0 6.0 0.00 0.00 0.00 71
20260901053037 82 199 4.0 6.0 0.00 0.00 0.00 70
20260901052537 82 201 4.0 8.0 0.00 0.00 0.00 70
20260901052032 82 140 4.0 7.0 0.00 0.00 0.00 70
20260901051527 82 145 3.0 7.0 0.00 0.00 0.00 69
20260901051025 82 137 4.0 8.0 0.00 0.00 0.00 69
20260901050521 82 161 7.0 8.0 0.00 0.00 0.00 69
20260901050017 83 174 6.0 7.0 0.00 0.00 0.00 69
20260901045512 83 153 4.0 7.0 0.00 0.00 0.00 68
20260901045011 83 157 6.0 7.0 0.00 0.00 0.00 68
20260901044508 83 181 7.0 9.0 0.00 0.00 0.00 68
20260901044003 84 167 6.0 9.0 0.00 0.00 0.00 68
20260901043459 84 137 8.0 9.0 0.00 0.00 0.00 67
20260901042954 84 158 5.0 10.0 0.00 0.00 0.00 67
20260901042453 84 123 4.0 8.0 0.00 0.00 0.00 67
20260901041949 84 188 7.0 10.0 0.00 0.00 0.00 67
20260901041444 85 156 8.0 10.0 0.00 0.00 0.00 67
20260901040943 85 169 5.0 11.0 0.00 0.00 0.00 66
20260901040439 85 128 8.0 14.0 0.00 0.00 0.00 66
20260901035937 85 161 10.0 14.0 0.00 0.00 0.00 66
20260901035436 85 122 11.0 14.0 0.00 0.00 0.00 66
20260901034935 85 137 10.0 15.0 0.00 0.00 0.00 65
20260901034429 85 153 7.0 9.0 0.00 0.00 0.00 64
20260901033930 85 144 11.0 16.0 0.00 0.00 0.00 63
20260901033428 86 133 9.0 13.0 0.00 0.00 0.00 62
20260901032927 86 136 7.0 11.0 0.00 0.00 0.00 62
20260901032422 86 158 10.0 15.0 0.00 0.00 0.00 60
20260901031917 86 140 9.0 11.0 0.00 0.00 0.00 59
20260901031413 86 125 5.0 13.0 0.00 0.00 0.00 57
20260901030912 87 131 9.0 14.0 0.00 0.00 0.00 55
20260901030403 87 138 7.0 9.0 0.00 0.00 0.00 53
20260901025901 87 111 7.0 9.0 0.00 0.00 0.00 52
20260901025356 87 106 5.0 7.0 0.00 0.00 0.00 52
20260901024851 87 123 3.0 6.0 0.00 0.00 0.00 52
20260901024350 87 135 3.0 3.0 0.00 0.00 0.00 51
20260901023848 88 121 3.0 3.0 0.00 0.00 0.00 50
20260901023344 88 134 3.0 6.0 0.00 0.00 0.00 50
20260901022838 88 132 5.0 6.0 0.00 0.00 0.00 49
20260901022335 89 140 4.0 7.0 0.00 0.00 0.00 48
20260901021830 89 129 5.0 7.0 0.00 0.00 0.00 48
20260901021325 89 137 7.0 9.0 0.00 0.00 0.00 47
20260901020820 89 104 9.0 10.0 0.00 0.00 0.00 47
20260901020315 88 123 5.0 6.0 0.00 0.00 0.00 48
20260901015815 89 110 3.0 3.0 0.00 0.00 0.00 48
20260901015312 89 112 2.0 3.0 0.00 0.00 0.00 49
20260901014810 89 124 2.0 3.0 0.00 0.00 0.00 49
20260901014306 89 115 3.0 3.0 0.00 0.00 0.00 49
20260901013802 89 121 4.0 5.0 0.00 0.00 0.00 48
20260901013258 90 116 2.0 3.0 0.00 0.00 0.00 48
20260901012753 90 128 3.0 3.0 0.00 0.00 0.00 47
20260901012253 90 114 3.0 5.0 0.00 0.00 0.00 46
20260901011749 91 121 3.0 3.0 0.00 0.00 0.00 46
20260901011244 91 117 3.0 3.0 0.00 0.00 0.00 46
20260901010738 91 121 3.0 5.0 0.00 0.00 0.00 46
20260901010233 91 127 3.0 3.0 0.00 0.00 0.00 45
20260901005731 92 123 2.0 3.0 0.00 0.00 0.00 45
20260901005227 92 130 3.0 3.0 0.00 0.00 0.00 45
20260901004726 92 149 5.0 6.0 0.00 0.00 0.00 44
20260901004216 93 115 4.0 6.0 0.00 0.00 0.00 43
20260901003715 93 135 6.0 8.0 0.00 0.00 0.00 43
20260901003210 93 140 4.0 8.0 0.00 0.00 0.00 43
20260901002709 93 99 3.0 7.0 0.00 0.00 0.00 43
20260901002204 94 107 4.0 8.0 0.00 0.00 0.00 43
20260901001659 94 135 4.0 8.0 0.00 0.00 0.00 42
20260901001154 94 112 5.0 7.0 0.00 0.00 0.00 42
20260901000649 94 85 4.0 7.0 0.00 0.00 0.00 41
20260901000145 94 116 6.0 8.0 0.00 0.00 0.00 41
20260831235638 95 85 5.0 10.0 0.00 0.00 0.00 41
20260831235134 95 127 7.0 11.0 0.00 0.00 0.00 41
20260831234633 95 137 5.0 8.0 0.00 0.00 0.00 41
20260831234129 95 138 3.0 6.0 0.00 0.00 0.00 41
20260831233624 95 158 7.0 10.0 0.00 0.00 0.00 40
20260831233119 95 135 7.0 14.0 0.00 0.00 0.00 41
20260831232614 95 111 8.0 11.0 0.00 0.00 0.00 40
20260831232110 95 162 9.0 11.0 0.00 0.00 0.00 40
20260831231606 96 160 2.0 5.0 0.00 0.00 0.00 40
20260831231102 96 172 5.0 7.0 0.00 0.00 0.00 39
20260831230557 96 115 5.0 9.0 0.00 0.00 0.00 39
20260831230052 96 160 6.0 8.0 0.00 0.00 0.00 39
20260831225547 96 180 4.0 7.0 0.00 0.00 0.00 38
20260831225041 96 121 7.0 10.0 0.00 0.00 0.00 39
20260831224537 96 153 5.0 8.0 0.00 0.00 0.00 39
20260831224032 96 124 6.0 11.0 0.00 0.00 0.00 38
20260831223527 96 147 3.0 8.0 0.00 0.00 0.00 40
20260831223024 96 148 8.0 10.0 0.00 0.00 0.00 38
20260831222520 96 121 7.0 10.0 0.00 0.00 0.00 39
20260831222019 96 126 5.0 8.0 0.00 0.00 0.00 38
20260831221515 95 113 8.0 9.0 0.00 0.00 0.00 39
20260831221010 96 122 5.0 9.0 0.00 0.00 0.00 38
20260831220505 96 89 7.0 10.0 0.00 0.00 0.00 39
20260831220000 96 135 5.0 11.0 0.00 0.00 0.00 39
20260831215456 95 111 3.0 8.0 0.00 0.00 0.00 40
20260831214952 95 150 9.0 10.0 0.00 0.00 0.00 40
20260831214449 96 169 5.0 9.0 0.00 0.00 0.00 39
20260831213944 96 92 7.0 14.0 0.00 0.00 0.00 40
20260831213441 96 133 9.0 14.0 0.00 0.00 0.00 40
20260831212941 97 148 3.0 6.0 0.00 0.00 0.00 39
20260831212437 95 186 4.0 6.0 0.00 0.00 0.00 41
20260831211937 96 186 4.0 11.0 0.00 0.00 0.00 40
20260831211432 94 127 6.0 9.0 0.00 0.00 0.00 40
20260831210931 94 120 5.0 7.0 0.00 0.00 0.00 43
20260831210427 94 95 9.0 13.0 0.00 0.00 0.00 44
20260831205923 95 142 10.0 14.0 0.00 0.00 0.00 43
20260831205418 95 99 4.0 10.0 0.00 0.00 0.00 42
20260831204918 95 131 4.0 9.0 0.00 0.00 0.00 41
20260831204418 95 133 5.0 9.0 0.00 0.00 0.00 42
20260831203912 95 103 4.0 6.0 0.00 0.00 0.00 44
20260831203406 95 69 5.0 11.0 0.00 0.00 0.00 42
20260831202904 95 129 10.0 13.0 0.00 0.00 0.00 41
20260831202400 95 141 9.0 15.0 0.00 0.00 0.00 40
20260831201900 95 109 6.0 13.0 0.00 0.00 0.00 43
20260831201359 94 130 7.0 9.0 0.00 0.00 0.00 44
20260831200855 95 142 8.0 15.0 0.00 0.00 0.00 41
20260831200349 94 163 9.0 11.0 0.00 0.00 0.00 46
20260831195844 93 90 6.0 10.0 0.00 0.00 0.00 48
20260831195340 94 82 12.0 17.0 0.00 0.00 0.00 46
20260831194835 95 147 6.0 10.0 0.00 0.00 0.00 44
20260831194331 94 174 4.0 6.0 0.00 0.00 0.00 47
20260831193830 94 151 4.0 15.0 0.00 0.00 0.00 46
20260831193325 94 163 5.0 8.0 0.00 0.00 0.00 46
20260831192820 95 155 7.0 15.0 0.00 0.00 0.00 46
20260831192315 92 105 5.0 8.0 0.00 0.00 0.00 47
20260831191811 93 60 5.0 10.0 0.00 0.00 0.00 48
20260831191307 92 96 3.0 8.0 0.00 0.00 0.00 49
20260831190802 92 125 9.0 14.0 0.00 0.00 0.00 51
20260831190302 93 251 6.0 13.0 0.00 0.00 0.00 49
20260831185801 93 107 6.0 8.0 0.00 0.00 0.00 49
20260831185257 92 111 11.0 14.0 0.00 0.00 0.00 50
20260831184756 92 188 2.0 10.0 0.00 0.00 0.00 51
20260831184252 91 133 4.0 7.0 0.00 0.00 0.00 52
20260831183747 92 184 2.0 7.0 0.00 0.00 0.00 51
20260831183247 91 168 7.0 11.0 0.00 0.00 0.00 51
20260831182745 91 140 9.0 13.0 0.00 0.00 0.00 52
20260831182242 92 87 5.0 10.0 0.00 0.00 0.00 51
20260831181736 91 160 7.0 13.0 0.00 0.00 0.00 52
20260831181231 91 127 5.0 8.0 0.00 0.00 0.00 52
20260831180731 90 135 2.0 13.0 0.00 0.00 0.00 55
20260831180226 90 168 11.0 15.0 0.00 0.00 0.00 53
20260831175725 90 127 8.0 14.0 0.00 0.00 0.00 54
20260831175222 89 120 6.0 14.0 0.00 0.00 0.00 55
20260831174722 90 147 11.0 15.0 0.00 0.00 0.00 55
20260831174219 90 132 10.0 11.0 0.00 0.00 0.00 54
20260831173717 90 170 7.0 10.0 0.00 0.00 0.00 55
20260831173212 90 164 7.0 9.0 0.00 0.00 0.00 54
20260831172712 90 191 8.0 11.0 0.00 0.00 0.00 54
20260831172208 89 128 1.0 6.0 0.00 0.00 0.00 57
20260831171702 89 160 7.0 10.0 0.00 0.00 0.00 56
20260831171200 89 123 7.0 11.0 0.00 0.00 0.00 58
20260831170656 89 164 9.0 13.0 0.00 0.00 0.00 55
20260831170153 88 189 9.0 14.0 0.00 0.00 0.00 57
20260831165648 88 224 3.0 5.0 0.00 0.00 0.00 60
20260831165144 87 214 5.0 8.0 0.00 0.00 0.00 62
20260831164640 87 234 6.0 7.0 0.00 0.00 0.00 62
20260831164136 87 167 4.0 9.0 0.00 0.00 0.00 61
20260831163631 87 132 6.0 10.0 0.00 0.00 0.00 63
20260831163127 87 155 7.0 10.0 0.00 0.00 0.00 62
20260831162626 87 155 9.0 11.0 0.00 0.00 0.00 61
20260831162124 88 134 6.0 10.0 0.00 0.00 0.00 61
20260831161620 87 180 3.0 7.0 0.00 0.00 0.00 64
20260831161116 87 121 7.0 14.0 0.00 0.00 0.00 63
20260831160615 87 196 9.0 10.0 0.00 0.00 0.00 63
20260831160110 85 184 4.0 10.0 0.00 0.00 0.00 66
20260831155605 85 235 3.0 3.0 0.00 0.00 0.00 68
20260831155100 84 225 3.0 6.0 0.00 0.00 0.00 69
20260831154556 84 176 5.0 8.0 0.00 0.00 0.00 69
20260831154056 84 210 5.0 9.0 0.00 0.00 0.00 70
20260831153555 84 198 5.0 9.0 0.00 0.00 0.00 69
20260831153052 84 166 2.0 7.0 0.00 0.00 0.00 69
20260831152547 84 175 5.0 10.0 0.00 0.00 0.00 69
20260831152043 84 180 4.0 10.0 0.00 0.00 0.00 70
20260831151542 84 195 5.0 10.0 0.00 0.00 0.00 70
20260831151037 84 171 6.0 10.0 0.00 0.00 0.00 71
20260831150532 83 143 7.0 10.0 0.00 0.00 0.00 73
20260831150028 83 191 9.0 11.0 0.00 0.00 0.00 74
20260831145522 83 218 5.0 13.0 0.00 0.00 0.00 74
20260831145019 83 186 8.0 11.0 0.00 0.00 0.00 75
20260831144514 82 145 6.0 10.0 0.00 0.00 0.00 77
20260831144009 82 164 9.0 10.0 0.00 0.00 0.00 77
20260831143504 81 202 8.0 9.0 0.00 0.00 0.00 80
20260831142959 81 205 5.0 7.0 0.00 0.00 0.00 81
20260831142456 80 204 6.0 10.0 0.00 0.00 0.00 82
20260831141950 80 203 7.0 11.0 0.00 0.00 0.00 82
20260831141449 80 215 10.0 14.0 0.00 0.00 0.00 82
20260831140944 80 193 5.0 8.0 0.00 0.00 0.00 83
20260831140439 80 225 12.0 14.0 0.00 0.00 0.00 83
20260831135938 80 149 9.0 10.0 0.00 0.00 0.00 84
20260831135437 79 171 6.0 8.0 0.00 0.00 0.00 86
20260831134932 79 178 5.0 6.0 0.00 0.00 0.00 86
20260831134429 79 187 8.0 9.0 0.00 0.00 0.00 87
20260831133928 79 185 4.0 10.0 0.00 0.00 0.00 87
20260831133428 79 194 4.0 6.0 0.00 0.00 0.00 87
20260831132923 79 236 3.0 5.0 0.00 0.00 0.00 88
20260831132419 78 175 3.0 8.0 0.00 0.00 0.00 89
20260831131918 78 128 3.0 7.0 0.00 0.00 0.00 90
20260831131414 78 223 3.0 5.0 0.00 0.00 0.00 90
20260831130909 77 171 2.0 3.0 0.00 0.00 0.00 91
20260831130405 77 188 3.0 3.0 0.00 0.00 0.00 91
20260831125903 77 216 3.0 3.0 0.00 0.00 0.00 92
20260831125359 76 182 3.0 5.0 0.00 0.00 0.00 92
20260831124854 76 199 3.0 6.0 0.00 0.00 0.00 93
20260831124350 76 179 3.0 5.0 0.00 0.00 0.00 93
20260831123845 76 160 3.0 5.0 0.00 0.00 0.00 93
20260831123344 76 199 1.0 2.0 0.00 0.00 0.00 93
20260831122839 76 192 3.0 5.0 0.00 0.00 0.00 93
20260831122334 76 180 3.0 3.0 0.00 0.00 0.00 93
20260831121834 76 187 3.0 3.0 0.00 0.00 0.00 92
20260831121330 76 159 3.0 5.0 0.00 0.00 0.00 92
20260831120826 76 201 3.0 5.0 0.00 0.00 0.00 92
20260831120320 76 191 4.0 5.0 0.00 0.00 0.00 92
20260831115815 76 191 2.0 3.0 0.00 0.00 0.00 92
20260831115312 76 190 3.0 5.0 0.00 0.00 0.00 92
20260831114811 76 180 3.0 6.0 0.00 0.00 0.00 91
20260831114310 76 167 3.0 5.0 0.00 0.00 0.00 91
20260831113806 76 192 4.0 6.0 0.00 0.00 0.00 91
20260831113300 76 204 3.0 5.0 0.00 0.00 0.00 91
20260831112754 77 182 4.0 6.0 0.00 0.00 0.00 91
20260831112249 77 193 4.0 7.0 0.00 0.00 0.00 90
20260831111744 77 123 4.0 6.0 0.00 0.00 0.00 90
20260831111241 77 143 5.0 7.0 0.00 0.00 0.00 90
20260831110736 77 169 7.0 9.0 0.00 0.00 0.00 90
20260831110231 77 182 5.0 6.0 0.00 0.00 0.00 90
20260831105730 77 195 6.0 9.0 0.00 0.00 0.00 90
20260831105226 77 189 5.0 8.0 0.00 0.00 0.00 90
20260831104720 77 177 3.0 6.0 0.00 0.00 0.00 89
20260831104217 77 155 4.0 9.0 0.00 0.00 0.00 89
20260831103717 77 176 5.0 8.0 0.00 0.00 0.00 89
20260831103213 77 200 7.0 8.0 0.00 0.00 0.00 90
20260831102712 77 223 5.0 8.0 0.00 0.00 0.00 90
20260831102207 77 192 2.0 6.0 0.00 0.00 0.00 89
20260831101702 77 151 5.0 8.0 0.00 0.00 0.00 89
20260831101158 77 210 6.0 8.0 0.00 0.00 0.00 90
20260831100654 77 209 5.0 7.0 0.00 0.00 0.00 89
20260831100150 77 180 4.0 9.0 0.00 0.00 0.00 89
20260831095648 77 174 8.0 10.0 0.00 0.00 0.00 89
20260831095143 77 207 5.0 7.0 0.00 0.00 0.00 89
20260831094638 77 183 6.0 7.0 0.00 0.00 0.00 89
20260831094134 77 190 4.0 7.0 0.00 0.00 0.00 89
20260831093630 77 165 6.0 10.0 0.00 0.00 0.00 89
20260831093126 77 176 7.0 8.0 0.00 0.00 0.00 89
20260831092622 77 204 6.0 8.0 0.00 0.00 0.00 89
20260831092117 76 207 5.0 7.0 0.00 0.00 0.00 89
20260831091616 76 227 6.0 7.0 0.00 0.00 0.00 89
20260831091112 76 211 2.0 7.0 0.00 0.00 0.00 89
20260831090608 76 214 5.0 8.0 0.00 0.00 0.00 88
20260831090104 76 164 9.0 13.0 0.00 0.00 0.00 89
20260831085558 76 159 5.0 11.0 0.00 0.00 0.00 89
20260831085054 76 190 7.0 8.0 0.00 0.00 0.00 88
20260831084549 76 197 5.0 9.0 0.00 0.00 0.00 88
20260831084046 76 195 5.0 8.0 0.00 0.00 0.00 88
20260831083542 76 179 6.0 10.0 0.00 0.00 0.00 87
20260831083036 76 179 8.0 9.0 0.00 0.00 0.00 87
20260831082535 77 175 4.0 7.0 0.00 0.00 0.00 86
20260831082025 77 185 6.0 7.0 0.00 0.00 0.00 86